Weather History for KHLX - November, 2012

Change the Weather History Date:

Thursday, November 8, 2012

  Actual Average (KBLF) Record (KBLF)
Temperature  
Mean Temperature 45 °F 50 °F  
Max Temperature 53 °F 59 °F 74 °F (1994)
Min Temperature 37 °F 41 °F 15 °F (1971)
Degree Days  
Heating Degree Days 20 15  
Month to date heating degree days 113  
Since 1 July heating degree days 477  
Cooling Degree Days 0 0  
Month to date cooling degree days 0  
Year to date cooling degree days 851  
Moisture  
Dew Point 24 °F    
Average Humidity 48    
Maximum Humidity 81    
Minimum Humidity 22    
Precipitation  
Precipitation 0.00 in 0.08 in 1.50 in (1996)
Month to date precipitation 0.70  
Year to date precipitation 34.73  
Snow  
Snow 0.00 in - - ()
Month to date snowfall  
Since 1 July snowfall  
Since 1 September snowfall  
Snow Depth -    
Sea Level Pressure  
Sea Level Pressure 30.08 in    
Wind  
Wind Speed 12 mph (NW)    
Max Wind Speed 23 mph    
Max Gust Speed 30 mph    
Visibility 10 miles    
Events      
T = Trace of Precipitation, MM = Missing Value Source: NWS Daily Summary

Daily Weather History Graph

Daily Weather History Graph

Search for Another Location

Airport or City:

Trip Planner

Search our weather history database for the weather conditions in past years. The results will help you decide how hot, cold, wet, or windy it might be!

Date:

Astronomy

Nov. 08, 2012 Rise Set
Actual Time 6:54 AM EST 5:19 PM EST
Civil Twilight 6:27 AM EST 5:46 PM EST
Nautical Twilight 5:56 AM EST 6:17 PM EST
Astronomical Twilight 5:26 AM EST 6:47 PM EST
Moon 12:57 AM EST (11/8) 1:51 PM EST (11/8)
Length of Visible Light 11h 18m
Length of Day
10h 24m
Waning Crescent, 33% of the Moon is Illuminated
Nov 8
Waning Crescent
Nov 13
New
Nov 20
First Quarter
Nov 28
Full
Dec 6
Last Quarter

Hourly Weather History & Observations

Time (EST) Temp. Windchill Dew Point Humidity Pressure Visibility Wind Dir Wind Speed Gust Speed Precip Events Conditions
12:15 AM 42.8 °F 38.6 °F 30.2 °F 61% 29.96 in 10.0 mi NW 6.9 mph - N/A   Clear
12:35 AM 42.8 °F 37.5 °F 30.2 °F 61% 29.97 in 10.0 mi NW 9.2 mph - N/A   Scattered Clouds
12:55 AM 44.6 °F 38.1 °F 30.2 °F 57% 29.96 in 10.0 mi NW 13.8 mph - N/A   Clear
1:15 AM 42.8 °F 37.0 °F 30.2 °F 61% 29.97 in 10.0 mi WNW 10.4 mph - N/A   Clear
1:35 AM 42.8 °F 36.6 °F 30.2 °F 61% 29.97 in 10.0 mi NW 11.5 mph - N/A   Clear
1:55 AM 42.8 °F 39.3 °F 30.2 °F 61% 29.97 in 10.0 mi NW 5.8 mph - N/A   Clear
2:15 AM 42.8 °F 37.5 °F 30.2 °F 61% 29.98 in 10.0 mi NW 9.2 mph - N/A   Clear
2:35 AM 42.8 °F 36.6 °F 30.2 °F 61% 29.98 in 10.0 mi NW 11.5 mph - N/A   Clear
2:55 AM 42.8 °F 37.0 °F 30.2 °F 61% 29.98 in 10.0 mi NW 10.4 mph - N/A   Clear
3:15 AM 42.8 °F 36.6 °F 30.2 °F 61% 29.98 in 10.0 mi WNW 11.5 mph - N/A   Clear
3:35 AM 41.0 °F 35.8 °F 32.0 °F 70% 29.99 in 10.0 mi WNW 8.1 mph - N/A   Clear
3:55 AM 39.2 °F 34.2 °F 33.8 °F 81% 29.99 in 10.0 mi West 6.9 mph - N/A   Clear
4:15 AM 39.2 °F 33.6 °F 32.0 °F 75% 30.00 in 10.0 mi West 8.1 mph - N/A   Clear
4:35 AM 39.2 °F 32.0 °F 32.0 °F 75% 30.01 in 10.0 mi WNW 11.5 mph - N/A   Clear
4:55 AM 39.2 °F 32.5 °F 32.0 °F 75% 30.02 in 10.0 mi WNW 10.4 mph - N/A   Clear
5:15 AM 39.2 °F 34.2 °F 32.0 °F 75% 30.01 in 10.0 mi WNW 6.9 mph - N/A   Clear
5:35 AM 39.2 °F 33.6 °F 32.0 °F 75% 30.02 in 10.0 mi West 8.1 mph - N/A   Clear
5:55 AM 39.2 °F 33.6 °F 30.2 °F 70% 30.03 in 10.0 mi WNW 8.1 mph - N/A   Clear
6:15 AM 39.2 °F 32.5 °F 30.2 °F 70% 30.03 in 10.0 mi WNW 10.4 mph 17.3 mph N/A   Clear
6:35 AM 39.2 °F 31.2 °F 28.4 °F 65% 30.04 in 10.0 mi WNW 13.8 mph 19.6 mph N/A   Clear
6:55 AM 39.2 °F 30.8 °F 28.4 °F 65% 30.04 in 10.0 mi WNW 15.0 mph 21.9 mph N/A   Clear
7:15 AM 37.4 °F 27.8 °F 28.4 °F 70% 30.05 in 10.0 mi WNW 17.3 mph - N/A   Clear
7:35 AM 37.4 °F 28.9 °F 30.2 °F 75% 30.07 in 10.0 mi WNW 13.8 mph - N/A   Clear
7:55 AM 37.4 °F 28.9 °F 30.2 °F 75% 30.08 in 10.0 mi WNW 13.8 mph 23.0 mph N/A   Clear
8:15 AM 39.2 °F 32.0 °F 30.2 °F 70% 30.09 in 10.0 mi WNW 11.5 mph 17.3 mph N/A   Clear
8:35 AM 41.0 °F 32.5 °F 28.4 °F 61% 30.09 in 10.0 mi WNW 17.3 mph 21.9 mph N/A   Clear
8:55 AM 41.0 °F 32.8 °F 30.2 °F 65% 30.09 in 10.0 mi WNW 16.1 mph 23.0 mph N/A   Clear
9:15 AM 42.8 °F 35.8 °F 28.4 °F 57% 30.10 in 10.0 mi WNW 13.8 mph - N/A   Clear
9:35 AM 42.8 °F 35.8 °F 28.4 °F 57% 30.11 in 10.0 mi WNW 13.8 mph - N/A   Clear
9:55 AM 44.6 °F 38.1 °F 26.6 °F 49% 30.11 in 10.0 mi WNW 13.8 mph 20.7 mph N/A   Clear
10:15 AM 46.4 °F 39.2 °F 26.6 °F 46% 30.12 in 10.0 mi WNW 18.4 mph 24.2 mph N/A   Clear
10:35 AM 46.4 °F 39.0 °F 26.6 °F 46% 30.12 in 10.0 mi WNW 19.6 mph 24.2 mph N/A   Clear
10:55 AM 46.4 °F 38.3 °F 24.8 °F 43% 30.11 in 10.0 mi NW 23.0 mph - N/A   Clear
11:15 AM 48.2 °F - 24.8 °F 40% 30.11 in 10.0 mi NW 21.9 mph 27.6 mph N/A   Clear
11:35 AM 48.2 °F - 21.2 °F 34% 30.11 in 10.0 mi NW 19.6 mph 29.9 mph N/A   Clear
11:55 AM 50.0 °F - 17.6 °F 28% 30.10 in 10.0 mi NNW 18.4 mph 25.3 mph N/A   Clear
12:15 PM 51.8 °F - 19.4 °F 28% 30.09 in 10.0 mi NW 19.6 mph - N/A   Clear
12:35 PM 51.8 °F - 17.6 °F 26% 30.09 in 10.0 mi WNW 19.6 mph 27.6 mph N/A   Clear
12:55 PM 51.8 °F - 17.6 °F 26% 30.09 in 10.0 mi NW 19.6 mph 26.5 mph N/A   Clear
1:15 PM 51.8 °F - 17.6 °F 26% 30.08 in 10.0 mi NW 19.6 mph 26.5 mph N/A   Clear
1:55 PM 53.6 °F - 15.8 °F 22% 30.08 in 10.0 mi NW 16.1 mph 25.3 mph N/A   Clear
2:15 PM 53.6 °F - 15.8 °F 22% 30.08 in 10.0 mi NW 17.3 mph - N/A   Clear
2:35 PM 53.6 °F - 17.6 °F 24% 30.08 in 10.0 mi WNW 15.0 mph - N/A   Clear
2:55 PM 53.6 °F - 17.6 °F 24% 30.08 in 10.0 mi WNW 16.1 mph 24.2 mph N/A   Clear
3:15 PM 53.6 °F - 17.6 °F 24% 30.08 in 10.0 mi WNW 17.3 mph 24.2 mph N/A   Clear
3:35 PM 53.6 °F - 17.6 °F 24% 30.08 in 10.0 mi NW 15.0 mph 19.6 mph N/A   Clear
3:55 PM 51.8 °F - 17.6 °F 26% 30.09 in 10.0 mi WNW 15.0 mph 23.0 mph N/A   Clear
4:15 PM 51.8 °F - 17.6 °F 26% 30.09 in 10.0 mi NW 16.1 mph 20.7 mph N/A   Clear
4:35 PM 51.8 °F - 15.8 °F 24% 30.09 in 10.0 mi NW 13.8 mph - N/A   Clear
4:55 PM 51.8 °F - 17.6 °F 26% 30.09 in 10.0 mi NW 15.0 mph 20.7 mph N/A   Clear
5:15 PM 50.0 °F - 15.8 °F 26% 30.09 in 10.0 mi NW 11.5 mph - N/A   Clear
5:35 PM 48.2 °F - 15.8 °F 27% 30.10 in 10.0 mi NW 11.5 mph - N/A   Clear
5:55 PM 48.2 °F - 15.8 °F 27% 30.11 in 10.0 mi NW 11.5 mph - N/A   Clear
6:15 PM 48.2 °F - 15.8 °F 27% 30.11 in 10.0 mi NW 12.7 mph - N/A   Clear
6:35 PM 48.2 °F - 14.0 °F 25% 30.12 in 10.0 mi NW 13.8 mph - N/A   Clear
6:55 PM 46.4 °F 40.4 °F 14.0 °F 27% 30.13 in 10.0 mi NW 13.8 mph 19.6 mph N/A   Clear
7:15 PM 46.4 °F 40.7 °F 14.0 °F 27% 30.13 in 10.0 mi NW 12.7 mph - N/A   Clear
7:35 PM 46.4 °F 41.9 °F 15.8 °F 29% 30.13 in 10.0 mi NW 9.2 mph - N/A   Clear
7:55 PM 46.4 °F 41.9 °F 17.6 °F 32% 30.13 in 10.0 mi NW 9.2 mph - N/A   Clear
8:15 PM 44.6 °F 38.8 °F 19.4 °F 37% 30.13 in 10.0 mi NW 11.5 mph - N/A   Clear
8:35 PM 44.6 °F 39.2 °F 21.2 °F 39% 30.13 in 10.0 mi NW 10.4 mph - N/A   Clear
8:55 PM 44.6 °F 40.2 °F 23.0 °F 43% 30.14 in 10.0 mi NW 8.1 mph - N/A   Clear
9:15 PM 42.8 °F 41.1 °F 24.8 °F 49% 30.15 in 10.0 mi West 3.5 mph - N/A   Clear
9:35 PM 42.8 °F 40.1 °F 24.8 °F 49% 30.16 in 10.0 mi WSW 4.6 mph - N/A   Clear
9:55 PM 42.8 °F 38.0 °F 26.6 °F 53% 30.16 in 10.0 mi WNW 8.1 mph - N/A   Clear
10:15 PM 42.8 °F 37.5 °F 26.6 °F 53% 30.16 in 10.0 mi WNW 9.2 mph - N/A   Clear
10:35 PM 42.8 °F 38.6 °F 26.6 °F 53% 30.16 in 10.0 mi WNW 6.9 mph - N/A   Clear
10:55 PM 42.8 °F 38.6 °F 26.6 °F 53% 30.16 in 10.0 mi West 6.9 mph - N/A   Clear
11:15 PM 42.8 °F 37.5 °F 26.6 °F 53% 30.16 in 10.0 mi WNW 9.2 mph - N/A   Clear
11:35 PM 41.0 °F 38.0 °F 26.6 °F 57% 30.17 in 10.0 mi WNW 4.6 mph - N/A   Clear
11:55 PM 41.0 °F 35.8 °F 26.6 °F 57% 30.16 in 10.0 mi NW 8.1 mph - N/A   Clear